Weather History for KNQX - March, 2014

Change the Weather History Date:

Tuesday, March 18, 2014

  Actual Average Record
Temperature  
Mean Temperature 74 °F -  
Max Temperature 79 °F 78 °F 86 °F (2003)
Min Temperature 70 °F 69 °F 56 °F (1960)
Cooling Degree Days 10    
Growing Degree Days 24 (Base 50)    
Moisture  
Dew Point 68 °F    
Average Humidity 79    
Maximum Humidity 94    
Minimum Humidity 66    
Precipitation  
Precipitation 0.41 in - - ()
Sea Level Pressure  
Sea Level Pressure 29.89 in    
Wind  
Wind Speed 17 mph (NW)    
Max Wind Speed 29 mph    
Max Gust Speed 33 mph    
Visibility 9 miles    
Events Fog , Rain    
Averages and records for this station are not official NWS values.
T = Trace of Precipitation, MM = Missing Value Source: NWS Daily Summary

Daily Weather History Graph

Daily Weather History Graph

Search for Another Location

Airport or City:

Trip Planner

Search our weather history database for the weather conditions in past years. The results will help you decide how hot, cold, wet, or windy it might be!

Date:

Astronomy

Mar. 18, 2014 Rise Set
Actual Time 7:32 AM EDT 7:37 PM EDT
Civil Twilight 7:10 AM EDT 7:59 PM EDT
Nautical Twilight 6:43 AM EDT 8:26 PM EDT
Astronomical Twilight 6:17 AM EDT 8:52 PM EDT
Moon 9:35 PM EDT (3/18) 8:35 AM EDT (3/18)
Length of Visible Light 12h 49m
Length of Day
12h 04m
Waning Gibbous, 96% of the Moon is Illuminated
Mar 18
Waning Gibbous
Mar 23
Last Quarter
Mar 30
New
Apr 7
First Quarter
Apr 15
Full

Hourly Weather History & Observations

Time (EDT) Temp. Dew Point Humidity Pressure Visibility Wind Dir Wind Speed Gust Speed Precip Events Conditions
12:53 AM 79.0 °F 73.0 °F 82% 29.82 in 10.0 mi SSW 20.7 mph - N/A   Scattered Clouds
1:53 AM 78.1 °F 73.0 °F 84% 29.82 in 10.0 mi SSW 18.4 mph 27.6 mph N/A   Clear
2:53 AM 78.1 °F 73.0 °F 84% 29.80 in 10.0 mi SSW 17.3 mph - N/A   Clear
3:53 AM 78.1 °F 73.0 °F 84% 29.80 in 10.0 mi SSW 20.7 mph 27.6 mph N/A   Mostly Cloudy
4:53 AM 78.1 °F 73.0 °F 84% 29.78 in 9.0 mi SSW 19.6 mph - N/A   Partly Cloudy
5:53 AM 77.0 °F 73.0 °F 88% 29.78 in 6.0 mi SSW 19.6 mph - 0.00 in Rain Light Rain
5:57 AM 77.0 °F 73.0 °F 88% 29.79 in 7.0 mi SSW 18.4 mph - 0.00 in Rain Light Rain
6:18 AM 77.0 °F 73.0 °F 88% 29.81 in 0.5 mi WSW 28.8 mph 33.4 mph 0.22 in Fog , Rain Heavy Rain
6:27 AM 75.0 °F 73.0 °F 94% 29.81 in 7.0 mi SW 20.7 mph - 0.40 in Rain Light Rain
6:49 AM 75.2 °F 71.6 °F 89% 29.81 in 7.0 mi West 21.9 mph 32.2 mph 0.41 in Rain Light Rain
6:53 AM 75.0 °F 72.0 °F 90% 29.81 in 7.0 mi WNW 19.6 mph 28.8 mph 0.41 in Rain Light Rain
7:15 AM 73.9 °F 70.0 °F 87% 29.82 in 10.0 mi WNW 13.8 mph - 0.00 in   Overcast
7:53 AM 73.9 °F 69.1 °F 85% 29.82 in 10.0 mi WNW 11.5 mph - 0.00 in   Overcast
8:53 AM 73.9 °F 69.1 °F 85% 29.86 in 10.0 mi WNW 16.1 mph - N/A   Mostly Cloudy
9:53 AM 77.0 °F 69.1 °F 76% 29.90 in 10.0 mi WNW 11.5 mph - N/A   Mostly Cloudy
10:35 AM 75.9 °F 69.1 °F 79% 29.93 in 10.0 mi NW 19.6 mph 26.5 mph N/A   Overcast
10:53 AM 73.9 °F 68.0 °F 82% 29.94 in 10.0 mi NNW 19.6 mph - N/A   Overcast
11:53 AM 75.0 °F 66.0 °F 73% 29.95 in 10.0 mi NNW 13.8 mph - N/A   Overcast
12:50 PM 73.4 °F 66.2 °F 78% 29.96 in 10.0 mi North 13.8 mph - N/A   Overcast
12:53 PM 73.9 °F 66.0 °F 76% 29.96 in 10.0 mi North 16.1 mph - N/A   Overcast
1:53 PM 75.0 °F 64.9 °F 71% 29.94 in 10.0 mi North 16.1 mph - N/A   Overcast
2:53 PM 77.0 °F 64.9 °F 66% 29.93 in 10.0 mi North 16.1 mph - N/A   Mostly Cloudy
3:53 PM 75.0 °F 63.0 °F 66% 29.92 in 10.0 mi North 12.7 mph - N/A   Mostly Cloudy
4:53 PM 73.9 °F 64.0 °F 71% 29.93 in 10.0 mi North 12.7 mph - N/A   Mostly Cloudy
5:53 PM 73.0 °F 63.0 °F 71% 29.94 in 10.0 mi North 11.5 mph - N/A   Mostly Cloudy
6:53 PM 72.0 °F 63.0 °F 73% 29.96 in 10.0 mi NNE 9.2 mph - N/A   Mostly Cloudy
7:53 PM 71.1 °F 62.1 °F 73% 29.97 in 10.0 mi North 10.4 mph - N/A   Mostly Cloudy
8:53 PM 70.0 °F 62.1 °F 76% 29.99 in 10.0 mi NNE 6.9 mph - N/A   Scattered Clouds
9:53 PM 71.1 °F 62.1 °F 73% 30.01 in 10.0 mi North 9.2 mph - N/A   Mostly Cloudy
10:53 PM 71.1 °F 61.0 °F 70% 30.02 in 10.0 mi North 9.2 mph - N/A   Overcast
11:53 PM 71.1 °F 60.1 °F 68% 30.03 in 10.0 mi North 11.5 mph - N/A   Mostly Cloudy